When you browse on this site, cookies collect data to enhance your experience and personalize the content and advertising you see.
Visit our Privacy Policy to learn more. By continuing to use the site, you agree to this use of cookies and data.
  • In Czech Republic
  • List of Countries
  • For 7 days
  • Water Temperature
  • Weather Map
  • Weather Widgets
  • user-avatar
    Login

    Hourly Weather Schleswig

    Today, 23 February, Sunday

    Time Temperature Precipitation Wind Pressure Humidity
    00:00 +2°C° 0.1 mm 9 mps 754 mmHg 71%
    01:00 +2°C° 0.1 mm 9 mps 754 mmHg 71%
    02:00 +2°C° 0.2 mm 9 mps 754 mmHg 72%
    03:00 +2°C° 0.2 mm 9 mps 754 mmHg 73%
    04:00 +2°C° 0.2 mm 9 mps 754 mmHg 74%
    05:00 +2°C° 0.1 mm 8 mps 754 mmHg 76%
    06:00 +2°C° 0.1 mm 8 mps 753 mmHg 79%
    07:00 +3°C° 0.1 mm 7 mps 753 mmHg 82%
    08:00 +3°C° 0.5 mm 7 mps 753 mmHg 85%
    09:00 +3°C° 0.5 mm 7 mps 752 mmHg 88%
    10:00 +3°C° 0.5 mm 7 mps 751 mmHg 91%
    11:00 +3°C° 1.3 mm 6 mps 750 mmHg 92%
    12:00 +3°C° 1.3 mm 5 mps 749 mmHg 93%
    13:00 +4°C° 1.3 mm 4 mps 748 mmHg 94%
    14:00 +4°C° 1.1 mm 4 mps 748 mmHg 95%
    15:00 +4°C° 1.1 mm 4 mps 747 mmHg 95%
    16:00 +2°C° 1.1 mm 5 mps 746 mmHg 95%
    17:00 +2°C° 1.1 mm 6 mps 748 mmHg 94%
    18:00 +2°C° 1.1 mm 7 mps 749 mmHg 93%
    19:00 0°C° 1.1 mm 8 mps 750 mmHg 92%
    20:00 0°C° 0.1 mm 8 mps 751 mmHg 88%
    21:00 0°C° 0.1 mm 8 mps 752 mmHg 84%
    22:00 0°C° 0.1 mm 7 mps 753 mmHg 81%
    23:00 +1°C° 0 mm 8 mps 754 mmHg 81%

    Tomorrow, 24 February, Monday

    Time Temperature Precipitation Wind Pressure Humidity
    00:00 +1°C° 0 mm 8 mps 755 mmHg 82%
    01:00 +2°C° 0 mm 8 mps 756 mmHg 82%
    02:00 +2°C° 0 mm 8 mps 756 mmHg 84%
    03:00 +2°C° 0 mm 7 mps 757 mmHg 86%
    04:00 +2°C° 0 mm 6 mps 757 mmHg 89%
    05:00 +2°C° 0 mm 5 mps 758 mmHg 90%
    06:00 +1°C° 0 mm 4 mps 758 mmHg 91%
    07:00 +2°C° 0 mm 3 mps 759 mmHg 93%
    08:00 +3°C° 0 mm 3 mps 759 mmHg 90%
    09:00 +3°C° 0 mm 3 mps 759 mmHg 87%
    10:00 +4°C° 0 mm 3 mps 759 mmHg 84%
    11:00 +5°C° 0 mm 3 mps 758 mmHg 82%
    12:00 +5°C° 0 mm 4 mps 757 mmHg 81%
    13:00 +5°C° 0 mm 4 mps 757 mmHg 79%
    14:00 +4°C° 0.4 mm 4 mps 755 mmHg 83%
    15:00 +3°C° 0.4 mm 5 mps 754 mmHg 87%
    16:00 +2°C° 0.4 mm 5 mps 752 mmHg 91%
    17:00 +1°C° 1.3 mm 6 mps 750 mmHg 92%
    18:00 +1°C° 1.3 mm 6 mps 749 mmHg 94%
    19:00 -1°C° 1.3 mm 7 mps 747 mmHg 96%
    20:00 +2°C° 1.2 mm 7 mps 745 mmHg 96%
    21:00 +3°C° 1.2 mm 7 mps 744 mmHg 96%
    22:00 +5°C° 1.2 mm 7 mps 742 mmHg 96%
    23:00 +5°C° 0.1 mm 8 mps 742 mmHg 94%

    Day after tomorrow, 25 February, Tuesday

    Time Temperature Precipitation Wind Pressure Humidity
    00:00 +5°C° 0.1 mm 9 mps 741 mmHg 92%
    01:00 +6°C° 0.1 mm 10 mps 741 mmHg 90%
    02:00 +5°C° 0.1 mm 10 mps 741 mmHg 85%
    03:00 +3°C° 0.1 mm 10 mps 741 mmHg 81%
    04:00 +2°C° 0.1 mm 10 mps 741 mmHg 76%
    05:00 +2°C° 0 mm 10 mps 741 mmHg 76%
    06:00 +2°C° 0 mm 10 mps 741 mmHg 76%
    07:00 +1°C° 0 mm 10 mps 741 mmHg 76%
    08:00 +2°C° 0.1 mm 11 mps 741 mmHg 75%
    09:00 +2°C° 0.1 mm 12 mps 740 mmHg 74%
    10:00 +1°C° 0.1 mm 13 mps 740 mmHg 73%
    11:00 +1°C° 0.3 mm 13 mps 739 mmHg 72%
    12:00 +1°C° 0.3 mm 14 mps 738 mmHg 71%
    13:00 +1°C° 0.3 mm 14 mps 738 mmHg 70%
    14:00 +1°C° 0.2 mm 14 mps 738 mmHg 72%
    15:00 +1°C° 0.2 mm 13 mps 738 mmHg 73%
    16:00 +1°C° 0.2 mm 13 mps 737 mmHg 74%
    17:00 0°C° 0.2 mm 12 mps 738 mmHg 75%
    18:00 +1°C° 0.2 mm 11 mps 738 mmHg 77%
    19:00 +1°C° 0.2 mm 10 mps 738 mmHg 79%
    20:00 +1°C° 0.2 mm 9 mps 738 mmHg 79%
    21:00 0°C° 0.2 mm 8 mps 739 mmHg 79%
    22:00 0°C° 0.2 mm 7 mps 739 mmHg 80%
    23:00 0°C° 0.2 mm 7 mps 739 mmHg 80%

    26 February, Wednesday

    Time Temperature Precipitation Wind Pressure Humidity
    00:00 +1°C° 0.2 mm 6 mps 739 mmHg 81%
    01:00 +1°C° 0.2 mm 6 mps 739 mmHg 82%
    02:00 +1°C° 0.2 mm 5 mps 739 mmHg 84%
    03:00 0°C° 0.2 mm 5 mps 738 mmHg 85%
    04:00 0°C° 0.2 mm 4 mps 738 mmHg 87%
    05:00 0°C° 0.1 mm 4 mps 738 mmHg 88%
    06:00 -1°C° 0.1 mm 4 mps 738 mmHg 90%
    07:00 0°C° 0.1 mm 3 mps 738 mmHg 91%
    08:00 0°C° 0 mm 4 mps 738 mmHg 86%
    09:00 +1°C° 0 mm 4 mps 739 mmHg 80%
    10:00 +3°C° 0 mm 4 mps 739 mmHg 75%
    11:00 +3°C° 0 mm 5 mps 740 mmHg 72%
    12:00 +3°C° 0 mm 5 mps 741 mmHg 68%
    13:00 +3°C° 0 mm 6 mps 741 mmHg 65%
    14:00 +3°C° 0.1 mm 6 mps 742 mmHg 67%
    15:00 +3°C° 0.1 mm 6 mps 742 mmHg 69%
    16:00 +2°C° 0.1 mm 5 mps 743 mmHg 70%
    17:00 +1°C° 0 mm 5 mps 744 mmHg 73%
    18:00 0°C° 0 mm 5 mps 745 mmHg 76%
    19:00 -1°C° 0 mm 4 mps 745 mmHg 78%
    20:00 -2°C° 0 mm 4 mps 746 mmHg 79%
    21:00 -2°C° 0 mm 4 mps 747 mmHg 80%
    22:00 -2°C° 0 mm 3 mps 748 mmHg 81%
    23:00 -2°C° 0 mm 3 mps 748 mmHg 81%

    27 February, Thursday

    Time Temperature Precipitation Wind Pressure Humidity
    00:00 -2°C° 0 mm 3 mps 749 mmHg 81%
    01:00 -2°C° 0 mm 3 mps 749 mmHg 80%
    02:00 -2°C° 0 mm 3 mps 749 mmHg 80%
    03:00 -2°C° 0 mm 2 mps 750 mmHg 80%
    04:00 -2°C° 0 mm 2 mps 750 mmHg 79%
    05:00 0°C° 0 mm 1 mps 750 mmHg 79%
    06:00 0°C° 0 mm 1 mps 751 mmHg 78%
    07:00 0°C° 0 mm 1 mps 751 mmHg 78%
    08:00 -1°C° 0 mm 2 mps 751 mmHg 78%
    09:00 0°C° 0 mm 3 mps 751 mmHg 78%
    10:00 +1°C° 0 mm 3 mps 752 mmHg 78%
    11:00 +3°C° 0.1 mm 4 mps 751 mmHg 74%
    12:00 +3°C° 0.1 mm 5 mps 751 mmHg 69%
    13:00 +4°C° 0.1 mm 6 mps 751 mmHg 65%
    14:00 +4°C° 0.1 mm 6 mps 750 mmHg 67%
    15:00 +3°C° 0.1 mm 5 mps 750 mmHg 69%
    16:00 +3°C° 0.1 mm 5 mps 749 mmHg 71%
    17:00 +2°C° 0 mm 5 mps 748 mmHg 72%
    18:00 +1°C° 0 mm 6 mps 747 mmHg 73%
    19:00 +1°C° 0 mm 6 mps 746 mmHg 74%
    20:00 0°C° 0.2 mm 7 mps 745 mmHg 81%
    21:00 0°C° 0.2 mm 8 mps 744 mmHg 87%
    22:00 -1°C° 0.2 mm 8 mps 742 mmHg 94%
    23:00 0°C° 0.3 mm 8 mps 742 mmHg 93%

    28 February, Friday

    Time Temperature Precipitation Wind Pressure Humidity
    00:00 +1°C° 0.3 mm 9 mps 741 mmHg 92%
    01:00 +2°C° 0.3 mm 9 mps 740 mmHg 91%
    02:00 +2°C° 0.1 mm 8 mps 740 mmHg 89%
    03:00 +2°C° 0.1 mm 8 mps 740 mmHg 86%
    04:00 +2°C° 0.1 mm 8 mps 740 mmHg 84%
    05:00 +2°C° 0.1 mm 9 mps 740 mmHg 81%
    06:00 +2°C° 0.1 mm 10 mps 740 mmHg 78%
    07:00 +2°C° 0.1 mm 11 mps 740 mmHg 76%
    08:00 +2°C° 0 mm 11 mps 741 mmHg 73%
    09:00 +2°C° 0 mm 12 mps 741 mmHg 70%
    10:00 +3°C° 0 mm 12 mps 741 mmHg 68%
    11:00 +3°C° 0 mm 12 mps 742 mmHg 68%
    12:00 +3°C° 0 mm 12 mps 743 mmHg 68%
    13:00 +4°C° 0 mm 12 mps 743 mmHg 68%
    14:00 +3°C° 0 mm 11 mps 744 mmHg 69%
    15:00 +3°C° 0 mm 9 mps 744 mmHg 70%
    16:00 +4°C° 0 mm 8 mps 745 mmHg 71%
    17:00 +3°C° 0 mm 7 mps 745 mmHg 75%
    18:00 +3°C° 0 mm 5 mps 744 mmHg 79%
    19:00 +3°C° 0 mm 4 mps 744 mmHg 83%
    20:00 +3°C° 0 mm 3 mps 744 mmHg 85%
    21:00 +3°C° 0 mm 3 mps 744 mmHg 87%
    22:00 +4°C° 0 mm 2 mps 743 mmHg 89%
    23:00 +2°C° 0.7 mm 3 mps 743 mmHg 91%
    Show more